Lid_Strength_Index
4 6 7 6 6 5 3 3 3 3 4 4 2 1 0 0 0 -0 1 -2 -2 -3 -2 -2 -2 -2 -2 -2 -2 -2 -2 -2 -2 -2 -2 -2 -1 -2 -2 -1 -1 -1 -1
6 6 7 6 5 3 3 3 3 3 4 4 3 3 1 0 0 0 0 -0 -2 -2 -2 -2 -2 -2 -2 -2 -2 -2 -2 -2 -2 -2 -1 -1 -2 -2 -2 -2 -2 -1 -1
5 6 6 6 5 3 3 3 2 3 4 4 3 3 4 3 0 0 0 1 -0 -2 -2 -2 -2 -2 -2 -2 -2 -2 -2 -2 -2 -2 -2 -2 -1 -2 -2 -2 -1 -1 -1
5 5 5 5 4 3 3 3 2 3 4 5 5 4 3 4 3 3 2 2 2 0 -1 -2 -2 -2 -2 -2 -2 -2 -2 -2 -1 -1 -1 -2 -2 -2 -1 -1 -1 -1 -1
5 4 5 5 3 3 4 3 2 4 5 4 3 4 4 4 3 2 3 4 3 1 1 -2 -2 -2 -2 -2 -2 -2 -1 -1 -1 -0 -0 -0 -1 -1 -1 -2 -2 -1 -1
5 4 5 4 3 3 4 4 2 3 4 4 3 5 5 4 4 4 5 4 4 4 1 0 0 -1 -2 -2 -1 -1 -1 -1 -0 -0 0 0 -0 -0 -0 -1 -1 -1 -2
3 4 3 4 4 4 4 3 3 5 5 5 6 6 5 6 6 6 6 5 5 4 5 1 1 1 1 -1 -0 -0 -1 -0 -0 0 0 1 0 -0 -0 -0 -0 -0 -1
4 4 3 4 4 4 4 3 4 5 5 5 6 7 8 7 6 6 7 6 6 4 2 2 2 3 3 3 2 0 0 -0 0 0 0 1 1 1 0 0 0 0 -0
4 4 3 4 4 4 4 4 3 5 6 6 6 7 10 10 9 7 8 7 5 5 4 3 4 4 5 5 3 2 1 0 0 0 1 1 1 1 1 1 0 0 0
4 3 3 3 4 4 4 3 3 4 6 7 7 7 7 8 9 11 9 9 7 5 6 5 4 4 5 5 2 1 1 2 1 1 1 1 1 1 1 1 1 1 0
3 3 3 3 3 3 3 3 4 4 6 7 7 8 9 9 10 11 11 10 8 8 8 6 5 4 5 5 5 3 2 3 2 2 2 2 2 1 1 1 1 1 1
4 2 3 3 3 3 4 3 4 5 6 7 8 8 8 9 10 11 11 11 11 9 8 9 8 7 6 5 3 2 2 2 2 2 2 2 1 1 0 0 0 0 -0
4 3 3 3 3 4 2 4 5 5 6 7 8 8 8 9 9 10 10 11 11 10 10 9 9 8 6 6 5 3 3 2 1 1 1 1 1 1 0 -0 -1 -1 -1
3 3 3 2 2 3 3 4 5 5 6 7 8 8 9 9 9 9 9 10 11 11 11 10 9 8 8 7 4 3 6 2 2 1 1 1 1 1 0 0 -0 -1 -1
4 3 3 2 2 3 3 4 5 6 6 7 8 8 9 9 9 9 9 10 11 12 12 11 10 9 8 8 5 7 7 3 2 1 0 0 -0 -0 -1 -1 -1 -0 -0
4 4 3 3 3 3 3 5 6 6 7 7 8 9 9 9 9 9 9 10 10 11 13 11 11 9 8 7 5 8 6 3 3 1 -0 -0 -1 -2 -2 -1 -2 -1 -1
5 4 3 3 3 4 5 5 6 6 7 8 8 8 9 10 10 10 10 10 11 11 13 12 11 10 9 9 7 7 5 5 5 1 -1 -2 -2 -2 -1 -2 -2 -2 -2
5 3 3 4 5 4 5 6 6 6 8 9 7 8 8 8 10 10 11 11 11 11 12 13 12 10 10 8 7 7 5 4 5 0 -2 -2 -2 -2 -2 -2 -2 -2 -1
5 4 3 5 5 5 5 6 6 7 8 8 8 8 8 8 10 11 12 12 12 10 12 12 11 11 9 8 7 7 6 5 3 -1 -2 -2 -2 -2 -2 -2 -2 -2 -1
5 3 5 5 5 5 5 6 6 7 8 7 7 7 8 9 11 11 12 12 12 12 12 11 10 10 9 8 8 8 6 5 4 2 0 -1 -1 -1 -1 -1 -1 -2 -1
4 3 5 4 5 6 5 6 6 7 8 7 8 8 9 9 8 9 11 12 12 12 11 10 10 10 9 9 9 7 7 6 5 4 3 2 3 3 2 -0 -1 -1 -1
4 3 4 5 6 6 8 7 7 8 8 8 10 9 8 6 6 6 6 7 9 9 9 9 9 10 9 9 8 7 7 7 7 4 4 3 3 3 3 2 -1 -1 -1
4 4 5 5 6 6 8 8 8 7 8 8 9 8 9 10 9 9 6 6 5 4 5 8 9 9 9 7 7 7 7 7 6 4 4 4 4 4 3 2 -1 -1 -1
4 5 6 6 7 7 9 9 8 8 7 8 8 9 10 11 11 9 9 10 8 7 7 6 7 7 7 6 6 5 6 6 5 5 4 5 4 4 3 3 -0 -0 0
6 6 7 8 8 9 10 9 8 8 8 8 8 9 10 11 9 8 9 9 9 9 5 4 4 4 3 3 3 5 6 6 6 5 4 5 4 5 5 4 3 0 1
7 7 9 8 9 9 10 10 8 8 8 8 8 9 8 10 9 9 9 9 10 9 9 7 7 6 5 5 1 5 5 6 7 6 5 5 5 6 6 4 4 3 3